Weather in Anna

Russia / Voronezh Oblast     51°29′21″N   40°25′27″E
temp.,
°C
wind,
m/s
gust,
m/s
humid.,
%
clouds,
%
prec.,
mm/h
press.,
hPa
HPBL,
m
5 august, thu
thu500:00+17nnw116143 0.0 101711
03:00+16nw22635 0.0 101812
06:00+16n22645 0.0 101842
09:00+23ne1145100 0.0 1018485
12:00+27wsw233270 0.0 10171988
15:00+29ssw232689 0.0 10162739
18:00+28s2230100 0.0 10151272
21:00+22ese334641 0.0 101541
6 august, fri
fri600:00+20se47526 0.0 1015113
03:00+18se410545 0.0 1015170
06:00+19se38545 0.0 1015157
09:00+27se69344 0.0 1013692
12:00+31sse672739 0.0 10131613
15:00+32s682693 0.0 10112586
18:00+31s483095 0.0 1010288
21:00+27se5123620 0.0 1010300
7 august, sat
sat700:00+24se616357 0.0 1010352
03:00+23se6153275 0.0 1011382
06:00+22se51438100 0.0 1011343
09:00+28sse61028100 0.0 1012618
12:00+33se78198 0.0 10111910
15:00+35se771792 0.0 10102510
18:00+33se6821100 0.0 10101041
21:00+27ese51329100 0.0 1011274
8 august, sun
sun800:00+24ese41131100 0.0 1011202
03:00+23ese31132100 0.0 1011191
06:00+25se3728100 0.0 1012113
09:00+25e5832100 0.0 1012163
12:00+31ese6826100 0.1 1012610
15:00+29se5827100 0.1 1012412
18:00+29se61031100 0.0 1013535
21:00+25e3642100 0.0 1014137
9 august, mon
mon900:00+25e494098 0.0 1013209
03:00+24n35428 0.0 1013103
06:00+23n5945100 0.0 1013209
09:00+25n5945100 0.0 1013406
12:00+31ne563160 0.0 10121299
15:00+33nne552811 0.0 10112550
18:00+32ne66328 0.0 10111999
21:00+25nne49480 0.0 1012144